Orbital Elements at Epoch 2459000.5 (2020-May-31.0) TDB
Reference: JPL 6 (heliocentric ecliptic J2000)
Element | Value | Uncertainty (1-sigma) | Units |
e | .336002132679311 | 0.00021499 | |
a | 1.471299074520906 | 0.00044885 | au |
q | .976939447672785 | 1.8283e-05 | au |
i | 10.9943235681547 | 0.0059259 | deg |
node | 25.31457936996945 | 1.8198e-05 | deg |
peri | 206.5451421554249 | 0.0028855 | deg |
M | 12.60711988994817 | 0.0059665 | deg |
tp | 2458977.672242432933 (2020-May-08.17224243) | 0.00040058 | TDB |
period | 651.8533016169968 1.78 | 0.2983 0.0008167 | d yr |
n | .55227149898141 | 0.00025273 | deg/d |
Q | 1.965658701369027 | 0.00059967 | au |
|
| | Orbit Determination Parameters
Additional Information
|